EW1566 Weather Reports


time (UTC)temp
C
wind
direction
speed
KPH
gust
KPH
rain 1hr
cm
rain 24hr
cm
rain mn
cm
humidity
%
barometer
mb
20260906195604 29 122 11.3 19.3 0.00 0.10 0.10 49 1014.5
20260906195103 29 125 9.7 16.1 0.00 0.10 0.10 49 1014.5
20260906194604 28 98 9.7 16.1 0.00 0.10 0.10 50 1014.5
20260906194103 28 122 12.9 16.1 0.00 0.10 0.10 48 1014.5
20260906193603 28 111 14.5 19.3 0.00 0.10 0.10 47 1014.4
20260906192605 28 114 9.7 19.3 0.00 0.10 0.10 46 1014.5
20260906191603 28 68 11.3 16.1 0.00 0.10 0.10 48 1014.6
20260906191104 29 66 12.9 22.5 0.00 0.10 0.10 49 1014.6
20260906190103 28 106 9.7 19.3 0.00 0.10 0.10 47 1014.5
20260906185604 28 104 6.4 12.9 0.00 0.10 0.10 48 1014.6
20260906185104 28 101 9.7 14.5 0.00 0.10 0.10 49 1014.6
20260906184604 28 98 9.7 16.1 0.00 0.10 0.10 52 1014.6
20260906184103 28 107 9.7 22.5 0.00 0.10 0.10 52 1014.7
20260906183604 28 104 16.1 24.1 0.00 0.10 0.10 53 1014.6
20260906183103 28 88 9.7 14.5 0.00 0.10 0.10 50 1014.5
20260906182604 27 109 9.7 14.5 0.00 0.10 0.10 51 1014.5
20260906182104 27 86 11.3 16.1 0.00 0.10 0.10 55 1014.6
20260906181604 26 95 9.7 16.1 0.00 0.10 0.10 59 1014.6
20260906181103 26 62 11.3 16.1 0.00 0.10 0.10 60 1014.7
20260906180603 26 73 14.5 19.3 0.00 0.10 0.10 58 1014.8
20260906180104 26 90 11.3 16.1 0.00 0.10 0.10 60 1014.7
20260906175104 25 93 8.0 12.9 0.00 0.10 0.10 63 1014.6
20260906174604 24 94 8.0 9.7 0.00 0.10 0.10 64 1014.6
20260906174104 23 94 4.8 8.0 0.00 0.10 0.10 64 1014.8
20260906173604 23 94 3.2 9.7 0.00 0.10 0.10 64 1014.8
20260906173103 23 103 4.8 11.3 0.00 0.10 0.10 65 1014.7
20260906172103 22 108 6.4 12.9 0.00 0.10 0.10 66 1014.3
20260906171603 22 106 9.7 14.5 0.00 0.10 0.10 65 1014.3
20260906171104 22 129 9.7 16.1 0.00 0.10 0.10 65 1014.4
20260906170606 22 137 9.7 19.3 0.03 0.10 0.10 65 1014.0
20260906170110 22 121 14.5 19.3 0.03 0.10 0.10 64 1013.8
20260906165604 22 128 11.3 19.3 0.05 0.10 0.10 64 1013.9
20260906165105 22 133 12.9 24.1 0.08 0.10 0.10 66 1014.2
20260906164603 22 152 14.5 24.1 0.10 0.10 0.10 65 1014.1
20260906164103 22 175 8.0 16.1 0.10 0.10 0.10 65 1014.6
20260906163604 22 128 12.9 24.1 0.10 0.10 0.10 65 1014.4
20260906163104 22 158 11.3 19.3 0.10 0.10 0.10 65 1014.3
20260906162603 22 154 11.3 19.3 0.10 0.10 0.10 65 1014.6
20260906162103 22 191 9.7 16.1 0.10 0.10 0.10 65 1015.3
20260906161604 22 152 8.0 19.3 0.10 0.10 0.10 65 1014.6
20260906161103 22 190 14.5 24.1 0.10 0.10 0.10 66 1014.5
20260906160604 22 162 12.9 19.3 0.08 0.08 0.08 66 1014.6
20260906160103 22 174 11.3 19.3 0.08 0.08 0.08 66 1015.6
20260906155604 22 173 8.0 12.9 0.05 0.05 0.05 65 1016.0
20260906154603 22 251 12.9 19.3 0.00 0.00 0.00 64 1016.2
20260906154104 22 263 14.5 24.1 0.00 0.00 0.00 65 1016.0
20260906153604 22 222 14.5 29.0 0.00 0.00 0.00 67 1016.1
20260906153104 22 189 4.8 8.0 0.00 0.00 0.00 67 1015.8
20260906152604 22 151 3.2 8.0 0.00 0.00 0.00 68 1015.8
20260906152104 22 172 4.8 4.8 0.00 0.00 0.00 68 1016.1
20260906151104 22 228 1.6 4.8 0.00 0.00 0.00 67 1015.8
20260906150603 22 263 1.6 4.8 0.00 0.00 0.00 67 1016.1
20260906150104 22 265 4.8 8.0 0.00 0.00 0.00 67 1016.1
20260906145603 22 269 3.2 9.7 0.00 0.00 0.00 67 1016.3
20260906145104 22 267 6.4 11.3 0.00 0.00 0.00 68 1016.3
20260906144604 22 280 4.8 9.7 0.00 0.00 0.00 68 1016.4
20260906144105 22 301 4.8 9.7 0.00 0.00 0.00 68 1016.2
20260906142604 22 306 8.0 11.3 0.00 0.00 0.00 68 1016.1
20260906142104 22 322 3.2 8.0 0.00 0.00 0.00 68 1016.1
20260906141603 22 292 4.8 9.7 0.00 0.00 0.00 68 1016.3
20260906141104 22 302 6.4 12.9 0.00 0.00 0.00 68 1016.4
20260906140603 22 297 6.4 9.7 0.00 0.00 0.00 68 1016.5
20260906140103 22 293 8.0 12.9 0.00 0.00 0.00 68 1016.6
20260906135603 22 291 8.0 12.9 0.00 0.00 0.00 67 1016.6
20260906135103 22 287 8.0 11.3 0.00 0.00 0.00 67 1016.6
20260906134604 22 287 8.0 11.3 0.00 0.00 0.00 67 1016.6
20260906134104 22 287 8.0 11.3 0.00 0.00 0.00 67 1016.5
20260906133605 22 289 9.7 12.9 0.00 0.00 0.00 66 1016.4
20260906132103 22 301 3.2 9.7 0.00 0.00 0.00 66 1016.4
20260906131603 22 308 6.4 14.5 0.00 0.00 0.00 65 1016.4
20260906131104 22 289 8.0 14.5 0.00 0.00 0.00 65 1016.4
20260906130604 22 301 9.7 16.1 0.00 0.00 0.00 65 1016.4
20260906130103 22 308 9.7 19.3 0.00 0.00 0.00 64 1016.4
20260906125603 23 304 8.0 19.3 0.00 0.00 0.00 64 1016.3
20260906125104 23 313 11.3 19.3 0.00 0.00 0.00 64 1016.2
20260906124603 23 317 14.5 20.9 0.00 0.00 0.00 63 1016.1
20260906124104 23 314 14.5 25.7 0.00 0.00 0.00 63 1016.0
20260906123603 23 322 19.3 27.4 0.00 0.00 0.00 63 1016.1
20260906123104 23 321 14.5 22.5 0.00 0.00 0.00 63 1016.1
20260906122603 23 301 14.5 19.3 0.00 0.00 0.00 64 1016.3
20260906122104 23 313 11.3 19.3 0.00 0.00 0.00 64 1016.2
20260906121603 23 292 16.1 25.7 0.00 0.00 0.00 64 1016.2
20260906121103 23 295 11.3 24.1 0.00 0.00 0.00 64 1016.1
20260906120603 23 306 14.5 29.0 0.00 0.00 0.00 65 1016.1
20260906115104 23 286 8.0 12.9 0.00 0.00 0.00 65 1015.6
20260906114603 23 299 8.0 11.3 0.00 0.00 0.00 66 1015.5
20260906114104 23 293 4.8 8.0 0.00 0.00 0.00 66 1015.3
20260906113603 22 289 4.8 14.5 0.00 0.00 0.00 67 1015.3
20260906111604 22 119 0.0 1.6 0.00 0.00 0.00 69 1014.3
20260906111103 22 119 3.2 4.8 0.00 0.00 0.00 69 1014.1
20260906110104 22 118 3.2 4.8 0.00 0.00 0.00 69 1013.9
20260906105603 22 118 1.6 4.8 0.00 0.00 0.00 69 1013.8
20260906105103 22 118 3.2 4.8 0.00 0.00 0.00 69 1013.7
20260906104604 22 119 3.2 4.8 0.00 0.00 0.00 69 1013.7
20260906104103 22 119 1.6 4.8 0.00 0.00 0.00 69 1013.6
20260906103104 22 119 3.2 4.8 0.00 0.00 0.00 69 1013.6
20260906102604 22 119 3.2 4.8 0.00 0.00 0.00 69 1013.6
20260906102103 22 119 1.6 4.8 0.00 0.00 0.00 69 1013.6
20260906101604 22 119 3.2 4.8 0.00 0.00 0.00 69 1013.7
20260906101104 22 119 3.2 4.8 0.00 0.00 0.00 69 1013.7
20260906100604 22 119 0.0 0.0 0.00 0.00 0.00 69 1013.7
20260906095604 22 119 1.6 3.2 0.00 0.00 0.00 69 1013.7
20260906095104 22 119 3.2 4.8 0.00 0.00 0.00 69 1013.6
20260906094604 22 119 3.2 4.8 0.00 0.00 0.00 69 1013.6
20260906094104 22 119 3.2 4.8 0.00 0.00 0.00 69 1013.6
20260906093604 22 119 3.2 4.8 0.00 0.00 0.00 69 1013.6
20260906093104 22 119 4.8 8.0 0.00 0.00 0.00 70 1013.6
20260906092603 22 118 6.4 8.0 0.00 0.00 0.00 70 1013.5
20260906091604 22 117 4.8 4.8 0.00 0.00 0.00 70 1013.3
20260906091104 22 118 4.8 8.0 0.00 0.00 0.00 70 1013.4
20260906090603 22 121 4.8 8.0 0.00 0.00 0.00 70 1013.3
20260906090105 22 122 4.8 8.0 0.00 0.00 0.00 70 1013.3
20260906085604 22 122 4.8 4.8 0.00 0.00 0.00 70 1013.2
20260906085103 22 123 4.8 8.0 0.00 0.00 0.00 70 1013.3
20260906084604 22 121 4.8 4.8 0.00 0.00 0.00 70 1013.3
20260906084103 22 122 4.8 4.8 0.00 0.00 0.00 70 1013.3
20260906083603 22 121 4.8 8.0 0.00 0.00 0.00 70 1013.4
20260906083103 22 122 4.8 8.0 0.00 0.00 0.00 70 1013.3
20260906082103 22 124 4.8 4.8 0.00 0.00 0.00 70 1013.4
20260906081603 22 124 4.8 4.8 0.00 0.00 0.00 70 1013.5
20260906081104 22 125 3.2 4.8 0.00 0.00 0.00 70 1013.4
20260906080603 22 125 3.2 4.8 0.00 0.00 0.00 70 1013.4
20260906080103 22 125 3.2 4.8 0.00 0.00 0.00 70 1013.5
20260906075604 22 125 4.8 8.0 0.00 0.00 0.00 70 1013.6
20260906075104 22 123 4.8 8.0 0.00 0.00 0.00 70 1013.6
20260906074603 22 122 6.4 8.0 0.00 0.00 0.00 70 1013.6
20260906074104 22 114 4.8 4.8 0.00 0.00 0.00 70 1013.6
20260906073603 22 113 4.8 4.8 0.00 0.00 0.00 70 1013.5
20260906073104 23 113 3.2 4.8 0.00 0.00 0.00 70 1013.5
20260906072603 23 113 4.8 4.8 0.00 0.00 0.00 70 1013.5
20260906072103 23 113 3.2 4.8 0.00 0.00 0.00 69 1013.4
20260906071604 23 113 4.8 4.8 0.00 0.00 0.00 69 1013.4
20260906071104 23 113 3.2 4.8 0.00 0.00 0.00 69 1013.4
20260906070603 23 113 3.2 4.8 0.00 0.00 0.00 69 1013.4
20260906070105 23 113 3.2 4.8 0.00 0.00 0.00 69 1013.4
20260906065603 23 113 1.6 4.8 0.00 0.00 0.00 69 1013.4
20260906065103 23 113 3.2 4.8 0.00 0.00 0.00 69 1013.3
20260906064603 23 115 3.2 4.8 0.00 0.00 0.00 69 1013.3
20260906064104 23 115 1.6 4.8 0.00 0.00 0.00 69 1013.2
20260906063104 23 116 3.2 4.8 0.00 0.00 0.00 69 1013.1
20260906062604 23 117 3.2 4.8 0.00 0.00 0.00 69 1013.1
20260906062104 23 117 3.2 4.8 0.00 0.00 0.00 68 1013.2
20260906061604 23 104 0.0 0.0 0.00 0.00 0.00 68 1013.2
20260906061104 23 104 0.0 0.0 0.00 0.00 0.00 68 1013.3
20260906060603 23 104 0.0 3.2 0.00 0.00 0.00 67 1013.4
20260906060103 24 104 3.2 4.8 0.00 0.00 0.00 67 1013.4
20260906055604 24 104 1.6 4.8 0.00 0.00 0.00 67 1013.5
20260906055104 24 104 0.0 0.0 0.00 0.00 0.00 66 1013.6
20260906054604 24 104 1.6 4.8 0.00 0.00 0.00 66 1013.6
20260906054104 24 104 1.6 3.2 0.00 0.00 0.00 66 1013.5
20260906053604 24 104 1.6 4.8 0.00 0.00 0.00 66 1013.5
20260906053103 24 104 3.2 4.8 0.00 0.00 0.00 66 1013.6
20260906052103 24 104 3.2 4.8 0.00 0.00 0.00 66 1013.5
20260906051603 24 104 4.8 8.0 0.00 0.00 0.00 66 1013.5
20260906051104 24 103 4.8 8.0 0.00 0.00 0.00 66 1013.4
20260906050604 24 99 3.2 8.0 0.00 0.00 0.00 66 1013.4
20260906050104 25 99 8.0 9.7 0.00 0.00 0.00 66 1013.4
20260906045604 25 99 8.0 9.7 0.00 0.00 0.00 66 1013.4
20260906045104 25 99 8.0 9.7 0.00 0.00 0.00 65 1013.4
20260906044103 25 107 8.0 8.0 0.00 0.00 0.00 64 1013.3
20260906043603 25 107 8.0 8.0 0.00 0.00 0.00 63 1013.3
20260906042604 25 107 6.4 8.0 0.00 0.00 0.00 63 1013.3
20260906042103 25 108 8.0 11.3 0.00 0.00 0.00 62 1013.3
20260906040604 26 117 4.8 4.8 0.00 0.00 0.00 62 1013.4
20260906040104 26 124 3.2 4.8 0.00 0.00 0.00 62 1013.3
20260906035604 26 123 3.2 4.8 0.00 0.00 0.00 62 1013.2
20260906034604 26 124 1.6 3.2 0.00 0.00 0.00 62 1013.2
20260906034104 26 124 1.6 3.2 0.00 0.00 0.00 62 1013.1
20260906033103 26 124 3.2 4.8 0.00 0.00 0.00 62 1012.9
20260906032603 26 124 1.6 4.8 0.00 0.00 0.00 61 1012.9
20260906032104 26 123 3.2 4.8 0.00 0.00 0.00 61 1012.9
20260906031604 27 123 3.2 4.8 0.00 0.00 0.00 61 1012.9
20260906030104 27 124 3.2 4.8 0.00 0.00 0.00 60 1012.9
20260906025603 27 124 3.2 4.8 0.00 0.00 0.00 60 1012.9
20260906025103 27 124 1.6 4.8 0.00 0.00 0.00 60 1012.7
20260906024604 27 124 1.6 3.2 0.00 0.00 0.00 59 1012.7
20260906024104 27 124 0.0 0.0 0.00 0.00 0.00 59 1012.5
20260906023603 27 124 0.0 0.0 0.00 0.00 0.00 59 1012.5
20260906023104 27 124 0.0 1.6 0.00 0.00 0.00 58 1012.4
20260906022603 28 124 1.6 3.2 0.00 0.00 0.00 58 1012.2
20260906022103 28 124 3.2 4.8 0.00 0.00 0.00 58 1012.2
20260906020604 28 125 8.0 11.3 0.00 0.00 0.00 57 1012.1
20260906015603 28 110 8.0 11.3 0.00 0.00 0.00 57 1011.9
20260906015104 28 97 8.0 9.7 0.00 0.00 0.00 56 1011.9
20260906014604 28 96 8.0 9.7 0.00 0.00 0.00 56 1011.8
20260906014103 28 96 6.4 11.3 0.00 0.00 0.00 55 1011.7
20260906012603 30 92 8.0 11.3 0.00 0.00 0.00 51 1011.3
20260906012104 30 107 4.8 4.8 0.00 0.00 0.00 48 1011.2
20260906011603 30 107 4.8 8.0 0.00 0.00 0.00 48 1011.2
20260906011104 30 109 8.0 12.9 0.00 0.00 0.00 47 1011.1
20260906010604 31 105 8.0 11.3 0.00 0.00 0.00 46 1011.1
20260906005604 31 117 8.0 11.3 0.00 0.00 0.00 45 1011.1
20260906005103 32 115 8.0 11.3 0.00 0.00 0.00 44 1011.2
20260906004604 32 115 8.0 11.3 0.00 0.00 0.00 43 1011.3
20260906004103 32 126 4.8 9.7 0.00 0.00 0.00 42 1011.2
20260906003103 33 133 8.0 9.7 0.00 0.00 0.00 41 1011.2
20260906002603 33 127 6.4 9.7 0.00 0.00 0.00 41 1011.1
20260906002103 33 129 8.0 11.3 0.00 0.00 0.00 41 1011.0
20260906001104 33 135 9.7 14.5 0.00 0.00 0.00 40 1010.9
20260906000604 33 131 8.0 12.9 0.00 0.00 0.00 40 1010.9
20260906000104 33 138 9.7 14.5 0.00 0.00 0.00 39 1010.9
20260905235104 34 134 8.0 12.9 0.00 0.00 0.00 39 1010.9
20260905234604 34 149 8.0 12.9 0.00 0.00 0.00 39 1010.9
20260905234104 34 133 9.7 14.5 0.00 0.00 0.00 38 1010.9
20260905233603 34 134 8.0 12.9 0.00 0.00 0.00 40 1010.9
20260905233103 34 130 11.3 16.1 0.00 0.00 0.00 41 1010.8
20260905232604 34 135 11.3 19.3 0.00 0.00 0.00 41 1010.8
20260905231604 34 144 11.3 14.5 0.00 0.00 0.00 40 1010.7
20260905231104 34 145 11.3 19.3 0.00 0.00 0.00 40 1010.7
20260905230604 34 125 9.7 20.9 0.00 0.00 0.00 40 1010.8
20260905230105 34 129 14.5 20.9 0.00 0.00 0.00 40 1010.8
20260905225607 34 127 14.5 19.3 0.00 0.00 0.00 39 1010.9
20260905225103 34 132 16.1 22.5 0.00 0.00 0.00 39 1010.9
20260905224607 34 139 19.3 22.5 0.00 0.00 0.00 39 1011.0
20260905224107 34 145 14.5 19.3 0.00 0.00 0.00 39 1011.0
20260905223606 34 133 14.5 20.9 0.00 0.00 0.00 38 1010.9
20260905223104 34 133 19.3 27.4 0.00 0.00 0.00 38 1011.1
20260905222604 34 128 14.5 22.5 0.00 0.00 0.00 38 1011.2
20260905222103 34 128 14.5 24.1 0.00 0.00 0.00 39 1011.2
20260905221603 34 120 19.3 27.4 0.00 0.00 0.00 39 1011.2
20260905221104 34 116 20.9 27.4 0.00 0.00 0.00 39 1011.3
20260905220604 34 113 22.5 29.0 0.00 0.00 0.00 39 1011.4
20260905220108 34 112 19.3 35.4 0.00 0.00 0.00 40 1011.4
20260905203604 33 110 20.9 32.2 0.00 0.00 0.00 41 1012.5
20260905203103 33 132 19.3 25.7 0.00 0.00 0.00 42 1012.6
20260905202604 33 95 19.3 27.4 0.00 0.00 0.00 43 1012.7
20260905202104 33 111 25.7 35.4 0.00 0.00 0.00 43 1012.8
20260905201605 33 95 22.5 29.0 0.00 0.00 0.00 44 1012.9
20260905201104 33 107 22.5 35.4 0.00 0.00 0.00 43 1012.9
20260905200604 33 107 19.3 25.7 0.00 0.00 0.00 45 1013.0